Regional Weather Roundup
Issued by NWS

Home | Current Version | Previous Version | Text Only | Print | Product List | Glossary Off
Versions: 1 2 3 4 5 6 7 8 9 10 11 12 13 14 15 16 17 18 19 20 21 22 23 24 25 26 27 28 29 30 31 32 33 34 35 36 37 38 39 40 41 42 43 44 45 46 47 48 49 50

000
ASUS44 KMEG 272200
RWRTN
TENNESSEE HOURLY STATE WEATHER ROUNDUP
NATIONAL WEATHER SERVICE MEMPHIS TN
500 PM CDT WED JUL 27 2016

TNZ002-004-019-021-049-052-054-088>092-272300-
WEST TENNESSEE

CITY           SKY/WX    TMP DP  RH WIND       PRES   REMARKS
MEMPHIS INTL   CLOUDY    84  76  76 CALM      29.89F HX  93
NWS MEMPHIS      N/A     80 N/A N/A MISG        N/A
JACKSON        MOSUNNY   91  75  59 S9        29.89F HX 101
DYERSBURG      MOSUNNY  N/A N/A N/A MISG        N/A  THUNDER
UNION CITY     SUNNY     93  75  55 S10       29.87F HX 104
PARIS          MOSUNNY   84  75  74 SE6       29.92R HX  92
LEXINGTON      MOSUNNY   91  72  52 VRB6      29.91R HX  98
$$

TNZ008-025-027-028-033-062-065-066-272300-
NORTH MIDDLE TENNESSEE

CITY           SKY/WX    TMP DP  RH WIND       PRES   REMARKS
NASHVILLE      PTSUNNY   89  73  59 E9        29.93F HX  97
CLARKSVILLE    CLOUDY    84  76  76 SW3       29.92S HX  93
COOKEVILLE     SUNNY     84  75  74 CALM      29.96F HX  92
CROSSVILLE     MOSUNNY   82  71  69 S3        30.03F
$$

TNZ061-075-076-078-094-096-097-272300-
SOUTH MIDDLE TENNESSEE

CITY           SKY/WX    TMP DP  RH WIND       PRES   REMARKS
TULLAHOMA      MOSUNNY   86  70  58 SW8       29.99S HX  90
WINCHESTER     MOSUNNY   90  72  55 S12       29.98S HX  96
MCMINNVILLE    MOSUNNY   90  79  70 VRB3      29.97F HX 105
COLUMBIA       SUNNY     93  73  52 S9        29.93S HX 102
SHELBYVILLE    SUNNY     90  73  58 S8        29.96F HX  98
$$

TNZ017-018-042-046-047-272300-
NORTHEAST TENNESSEE

CITY           SKY/WX    TMP DP  RH WIND       PRES   REMARKS
TRI CITIES     MOSUNNY   94  66  39 MISG      29.97S HX  97
$$

TNZ012-013-036-069-073-074-272300-
CENTRAL EAST TENNESSEE

CITY           SKY/WX    TMP DP  RH WIND       PRES   REMARKS
KNOXVILLE      CLOUDY    94  71  47 S13       29.94F HX 101
OAK RIDGE      CLOUDY    92  68  45 VRB6      29.97S HX  96
GATLINBURG       N/A     91  66  43 SW7       29.95S HX  94
$$

TNZ083-085-099-272300-
SOUTHEAST TENNESSEE

CITY           SKY/WX    TMP DP  RH WIND       PRES   REMARKS
CHATTANOOGA    MOSUNNY   93  68  43 SW12      29.96S HX  97
$$

SKY/WX REPORTED AS FAIR MEANS FEW OR NO CLOUDS BELOW
12 THOUSAND FEET.





USA.gov is the U.S. government's official web portal to all federal, state and local government web resources and services.